Location: Heiligenberg
(48.5381°N, 7.3897°E)
Time: 23:22:49
(UTC+00:00)

Cosmos 1606 Rocket - Pass Details

Date: 26 May 2022
Orbit: 601 x 632 km, 82.5° (Epoch: 02 July)

Event Time Altitude Azimuth Distance (km) Brightness Sun altitude
Rises 02:26:45 0° 349° (NNW) 2,921 7.6 -9.7°
Reaches altitude 10° 02:29:00 10° 348° (NNW) 2,004 6.7 -9.4°
Maximum altitude 02:33:26 77° 263° (W) 639 3.5 -8.9°
Drops below altitude 10° 02:37:48 10° 177° (S) 1,968 5.7 -8.4°
Sets 02:39:59 0° 176° (S) 2,863 6.6 -8.2°
